Zurück zum Katalog

STARLINK-5652

AktivKommunikationVLEO
NORAD 55334·PAYLOAD·🇺🇸 United States

Gestartet Jan 26, 2023 von Cape Canaveral Space Force Station

Loading…

Nächste Überflüge (nächste 24 Stunden)

TLE

AktuellSource: CelesTrak SupGP

Epoche: Sep 14, 2026, 21:58 UTC

1 55334C 23013D   26257.91576389 -.00047397  00000+0 -17169-2 0  2573
2 55334  43.0019 314.7988 0001370 263.4523  20.3333 15.27598863    14

Verfolge STARLINK-5652 in Echtzeit mit AllMySat

Download on the App Store